User: anonymous   Login
Location: Holmes Observatory
(37.1039°N, 122.0513°W)
Time: 08:25:04
(UTC-07:00)
Language:

Cosmos 921 Rocket - Orbit

View from above orbital plane
View from above orbital plane
View from above satellite
View from above satellite

Ground track
Ground track

The orbit data is extracted from the following two-line orbital elements,

1 10096U 77055B   15187.48861358  .00000275  00000-0  31459-4 0  9995
2 10096 075.8328 183.4954 0043566 220.5316 139.2629 14.88287280 56368
Epoch (UTC): 06 July 2015 11:43:36
Eccentricity: 0.0043566
inclination: 75.8328°
perigee height: 573 km
apogee height: 634 km
right ascension of ascending node: 183.4954°
argument of perigee: 220.5316°
revolutions per day: 14.88287280
mean anomaly at epoch: 139.2629°
orbit number at epoch: 5636

The dashed part of the orbit path shows where the satellite is in the earth's shadow,  

DLR